North Plainfield Burying Ground, New Jersey, United States
Lat: 40.64N, Lon: 74.46W
Wx Zone: NJZ010
Local Info
Past Weather Observations for Today

NOTE: This archive is for the closest National Weather Service station to North Plainfield Burying Ground. Information may differ from the station used for current weather conditions.

Click here for Long-term Archive

Time Weather Temperature Dewpoint Humidity Pressure Winds Precip Visibility
22:16
Overcast
Fog And Mist
46°F / 8°C 45°F / 7°C 93% 30.06 in
(1018 mb)
NE 8.1 mph
(NE 13 kph)
- 2 1/2SM
21:53
Overcast
Fog And Mist
48°F / 9°C 46°F / 8°C 94% 30.06 in
(1018 mb)
Calm - 5SM
20:53
Overcast
Fog And Mist
48°F / 9°C 46°F / 8°C 94% 30.06 in
(1018 mb)
E 3.5 mph
(E 6 kph)
- 4SM
20:32
Overcast
Fog And Mist
48°F / 9°C 46°F / 8°C 94% 30.06 in
(1018 mb)
SE 5.8 mph
(SE 9 kph)
- 3SM
20:19
Overcast
Fog And Mist
48°F / 9°C 46°F / 8°C 94% 30.06 in
(1018 mb)
Calm - 2 1/2SM
19:53
Overcast
Fog And Mist
48°F / 9°C 46°F / 8°C 94% 30.09 in
(1019 mb)
NNW 3.5 mph
(NNW 6 kph)
- 4SM
19:15
Overcast
Fog And Mist
48°F / 9°C 46°F / 8°C 94% 30.09 in
(1019 mb)
Calm - 5SM
18:53
Overcast
48°F / 9°C 46°F / 8°C 94% 30.09 in
(1019 mb)
Calm - 7SM
18:02
Overcast
Fog And Mist
48°F / 9°C 46°F / 8°C 94% 30.06 in
(1018 mb)
ESE 3.5 mph
(ESE 6 kph)
- 3SM
17:57
Overcast
Fog And Mist
48°F / 9°C 46°F / 8°C 94% 30.06 in
(1018 mb)
E 5.8 mph
(E 9 kph)
- 2SM
17:53
Overcast
Fog And Mist
48°F / 9°C 46°F / 8°C 94% 30.06 in
(1018 mb)
SE 3.5 mph
(SE 6 kph)
- 1 3/4SM
16:53
Overcast
Fog And Mist
48°F / 9°C 46°F / 8°C 94% 30.09 in
(1019 mb)
E 4.6 mph
(E 7 kph)
0.00 in
(0.00 mm)
2 1/2SM
16:45
Overcast
Fog And Mist
48°F / 9°C 46°F / 8°C 94% 30.09 in
(1019 mb)
E 4.6 mph
(E 7 kph)
0.00 in
(0.00 mm)
3SM
16:33
Overcast
Fog And Mist
48°F / 9°C 46°F / 8°C 94% 30.09 in
(1019 mb)
ESE 4.6 mph
(ESE 7 kph)
0.00 in
(0.00 mm)
2 1/2SM
16:19
Overcast
Fog And Mist
48°F / 9°C 46°F / 8°C 94% 30.09 in
(1019 mb)
E 5.8 mph
(E 9 kph)
0.00 in
(0.00 mm)
1 3/4SM
16:12
Overcast
Fog And Mist
48°F / 9°C 46°F / 8°C 94% 30.09 in
(1019 mb)
E 4.6 mph
(E 7 kph)
0.00 in
(0.00 mm)
2SM
15:53
Overcast
Light Rain
48°F / 9°C 46°F / 8°C 94% 30.09 in
(1019 mb)
Calm 0.01 in
(0.25 mm)
9SM
14:53
Overcast
50°F / 10°C 46°F / 8°C 88% 30.09 in
(1019 mb)
Variable 4.6 mph
(Variable 7 kph)
0.00 in
(0.00 mm)
10SM
13:53
Overcast
50°F / 10°C 46°F / 8°C 88% 30.12 in
(1020 mb)
SE 4.6 mph
(SE 7 kph)
0.00 in
(0.00 mm)
10SM
13:09
Overcast
Fog And Mist
48°F / 9°C 46°F / 8°C 94% 30.12 in
(1020 mb)
SE 4.6 mph
(SE 7 kph)
- 5SM
13:00
Overcast
Fog And Mist
48°F / 9°C 46°F / 8°C 94% 30.12 in
(1020 mb)
SE 4.6 mph
(SE 7 kph)
- 4SM
12:53
Overcast
Fog And Mist
48°F / 9°C 46°F / 8°C 94% 30.12 in
(1020 mb)
SE 4.6 mph
(SE 7 kph)
0.00 in
(0.00 mm)
4SM
12:11
Overcast
48°F / 9°C 46°F / 8°C 94% 30.12 in
(1020 mb)
Calm 0.00 in
(0.00 mm)
8SM
12:02
Overcast
48°F / 9°C 46°F / 8°C 94% 30.12 in
(1020 mb)
SE 3.5 mph
(SE 6 kph)
0.00 in
(0.00 mm)
7SM
11:53
Overcast
Light Rain
48°F / 9°C 46°F / 8°C 94% 30.15 in
(1021 mb)
SE 3.5 mph
(SE 6 kph)
0.02 in
(0.51 mm)
5SM
11:21
Overcast
Light Rain
48°F / 9°C 45°F / 7°C 87% 30.15 in
(1021 mb)
Variable 3.5 mph
(Variable 6 kph)
0.02 in
(0.51 mm)
3SM
10:53
Overcast
Light Rain
46°F / 8°C 45°F / 7°C 93% 30.15 in
(1021 mb)
SSE 4.6 mph
(SSE 7 kph)
0.04 in
(1.02 mm)
6SM
10:44
Overcast
Light Rain
46°F / 8°C 45°F / 7°C 93% 30.15 in
(1021 mb)
SE 3.5 mph
(SE 6 kph)
0.03 in
(0.76 mm)
6SM
10:24
Overcast
Light Rain
46°F / 8°C 45°F / 7°C 93% 30.18 in
(1022 mb)
Variable 3.5 mph
(Variable 6 kph)
0.02 in
(0.51 mm)
5SM
09:53
Overcast
Rain
46°F / 8°C 43°F / 6°C 87% 30.18 in
(1022 mb)
Variable 3.5 mph
(Variable 6 kph)
0.06 in
(1.52 mm)
3SM
09:36
Overcast
Light Rain
46°F / 8°C 43°F / 6°C 87% 30.18 in
(1022 mb)
Calm 0.03 in
(0.76 mm)
5SM
09:29
Overcast
Light Rain
45°F / 7°C 43°F / 6°C 93% 30.18 in
(1022 mb)
SE 4.6 mph
(SE 7 kph)
0.03 in
(0.76 mm)
6SM
08:53
Overcast
Light Rain
46°F / 8°C 43°F / 6°C 87% 30.18 in
(1022 mb)
Variable 3.5 mph
(Variable 6 kph)
0.06 in
(1.52 mm)
4SM
07:53
Overcast
Light Rain
46°F / 8°C 43°F / 6°C 87% 30.18 in
(1022 mb)
SE 3.5 mph
(SE 6 kph)
0.06 in
(1.52 mm)
4SM
06:53
Overcast
Light Rain
48°F / 9°C 45°F / 7°C 87% 30.21 in
(1023 mb)
Calm 0.01 in
(0.25 mm)
8SM
05:53
Overcast
Light Rain
46°F / 8°C 43°F / 6°C 87% 30.21 in
(1023 mb)
Calm 0.00 in
(0.00 mm)
8SM
04:53
Overcast
46°F / 8°C 41°F / 5°C 82% 30.18 in
(1022 mb)
Calm - 10SM
03:53
Overcast
46°F / 8°C 41°F / 5°C 82% 30.18 in
(1022 mb)
Calm - 10SM
02:53
Overcast
48°F / 9°C 37°F / 3°C 66% 30.18 in
(1022 mb)
Calm - 10SM
01:53
Overcast
48°F / 9°C 37°F / 3°C 66% 30.18 in
(1022 mb)
Calm - 10SM
00:53
Overcast
48°F / 9°C 36°F / 2°C 62% 30.18 in
(1022 mb)
SE 4.6 mph
(SE 7 kph)
- 10SM
Time Weather Temperature Dewpoint Humidity Pressure Winds Precip Visibility


Weather for websites

WeatherForYou.com, LLC is not responsible for any damages or problems caused by this service. Current weather conditions are obtained from the closest station including government and personal stations which may have varying degrees of accuracy. Weather forecasts are derived from the NOAA NDFD. Like all things, this site belongs to Jesus Christ... He just trusts us to maintain it. If you have any questions or comments email webmaster@weatherforyou.com

Copyright © 2016, WeatherForYou.com LLC. All rights reserved.